User: anonymous   Login
Location: Unspecified
(0.0000°N, 0.0000°E)
Time: 04:58:32
(UTC+01:00)
Language:

Iridium 4 Rocket - Orbit

View from above orbital plane
View from above orbital plane
View from above satellite
View from above satellite

Ground track
Ground track

The orbit data is extracted from the following two-line orbital elements,

1 24797U 97020F   17049.90891855  .00000231  00000-0  44565-4 0  9997
2 24797  86.8945  36.6800 0225210 352.2887  28.1215 14.43949766 40872
Epoch (UTC): 18 February 2017 21:48:50
Eccentricity: 0.0225210
inclination: 86.8945°
perigee height: 585 km
apogee height: 906 km
right ascension of ascending node: 36.6800°
argument of perigee: 352.2887°
revolutions per day: 14.43949766
mean anomaly at epoch: 28.1215°
orbit number at epoch: 4087

The dashed part of the orbit path shows where the satellite is in the earth's shadow,  

DLR